TNCM

Details ICAO TNCM (SXM)
Name Princess Juliana Intl
Region Caribbean Netherlands, Aruba, Curaçao, Sint Maarten
Timezone Unknown
Plans Departing 4560
Arriving 6801
Stats Elevation 14 ft / 4 m (AMSL)
Location 18.040900° -63.108900°
Runways 1
Magnetic Variation 14.373° W
Sunrise 2019-09-19 10:02:10 UTC / 2019-09-19 10:02:10 Local
Sunset 2019-09-19 22:13:13 UTC / 2019-09-19 22:13:13 Local
Advertisement - Login to hide

Runways

ID Width Length Bearing (true/mag) Surface Threshold Overrun Markings Lighting
10 148 ft / 45 m 7,553 ft / 2,302 m 81.44° / 95.81° ASPHALT 331 ft / 101 m 164 ft / 50 m PREC-APP EDGE THRESHOLD REIL-OMNI
28 148 ft / 45 m 7,553 ft / 2,302 m 261.45° / 275.82° ASPHALT 0 ft / 0 m 200 ft / 61 m APP EDGE THRESHOLD

Map

Weather


0- 5 10 15 20 25 30 35+ Temperature / °C

Clouds and Precipitation
Forecast for 2019-09-19 12:00 UTC. Updated 5 hours ago

Ground ~20,000 ft ~40,000 ft Winds

METAR

TNCM 191500Z 09008KT 060V120 9999 SCT018 32/24 Q1011 NOSIG

TAF

TAF TNCM 191342Z 1914/2012 09008KT P6SM VCSH SCT018 SCT035 FM191450 10012G18KT P6SM SCT025

Frequencies

Tower 118.70 MHz Juliana Tower
Departure 128.95 MHz Juliana Departure
Approach 128.95 MHz Juliana Approach
Recorded 127.65 MHz ATIS
Warning: Do not use this data for real-world aviation or navigation. No guarantee of current accuracy is given.